Date String (YYYY-MM-DD hh:mm:ss) UTC,Instrument flags,absolute air pressure of the measurement (hPa),sample flow rate (lpm),inlet stack bypass flow (lpm),air temperature of the measurement (°C),ambient temperature measured by the external sensor (°C),aerosol sample conditioner tube jacket temperature (°C),OPC LED temperature (°C),internal box temperature (°C),relative humidity of the measurement (%),span deviation,mass concentration of particles derived from Lorenz-Mie calculation of OPC scattering (μg/m³),mass concentration of particles derived from Lorenz-Mie calculation of OPC scattering (μg/m³),mass concentration of particles derived from Lorenz-Mie calculation of OPC scattering (μg/m³)
DateTimeUTC,F1_M11,P_M11,Q1_M11,Q2_M11,T1_M11,T2_M11,T3_M11,T4_M11,T5_M11,U1_M11,ZSPAN_M11,X2_M11,X0_M11,X1_M11
2024-03-02 06:00:00,SystemResetWarning,0821.5,5.00,000.00,023.2,022.3,000.0,031.7,025.0,09.4,0000.0,0001.86,0005.70,0001.13
2024-03-02 06:01:00,SystemResetWarning,0821.3,5.01,000.00,023.2,022.4,000.0,031.7,025.0,09.8,0000.0,0001.86,0005.38,0001.14
2024-03-02 06:02:00,SystemResetWarning,0821.2,5.00,000.00,023.2,022.3,000.0,031.7,025.0,09.9,0000.0,0001.85,0005.44,0001.12
2024-03-02 06:03:00,SystemResetWarning,0821.2,5.00,000.00,023.2,022.3,000.0,031.7,025.0,09.7,0000.0,0001.80,0005.41,0001.12
2024-03-02 06:04:00,SystemResetWarning,0821.1,4.99,000.00,023.2,022.3,000.0,031.7,025.0,09.7,0000.0,0001.85,0005.56,0001.14
2024-03-02 06:05:00,SystemResetWarning,0821.1,4.99,000.00,023.2,022.3,000.0,031.7,025.0,09.6,0000.0,0001.87,0005.67,0001.14
2024-03-02 06:06:00,SystemResetWarning,0821.2,5.01,000.00,023.2,022.3,000.0,031.7,025.0,09.4,0000.0,0001.91,0005.84,0001.13
2024-03-02 06:07:00,SystemResetWarning,0821.5,5.01,000.00,023.2,022.3,000.0,031.7,025.0,09.5,0000.0,0001.96,0006.38,0001.13
2024-03-02 06:08:00,SystemResetWarning,0821.6,5.00,000.00,023.2,022.3,000.0,031.7,025.0,09.7,0000.0,0002.00,0005.58,0001.15
2024-03-02 06:09:00,SystemResetWarning,0821.0,5.00,000.00,023.2,022.3,000.0,031.7,025.0,09.7,0000.0,0002.01,0005.21,0001.16
2024-03-02 06:10:00,SystemResetWarning,0821.1,5.00,000.00,023.2,022.3,000.0,031.7,025.0,09.5,0000.0,0002.01,0005.16,0001.15
2024-03-02 06:11:00,SystemResetWarning,0821.1,5.00,000.00,023.2,022.3,000.0,031.7,025.0,09.3,0000.0,0002.01,0005.10,0001.15
2024-03-02 06:12:00,SystemResetWarning,0821.0,4.99,000.00,023.2,022.3,000.0,031.7,025.0,09.2,0000.0,0002.06,0005.19,0001.15
2024-03-02 06:13:00,SystemResetWarning,0821.1,4.99,000.00,023.2,022.3,000.0,031.7,025.0,09.1,0000.0,0002.08,0005.61,0001.15
2024-03-02 06:14:00,SystemResetWarning,0821.1,5.01,000.00,023.2,022.3,000.0,031.7,025.0,09.1,0000.0,0002.19,0006.74,0001.15
2024-03-02 06:15:00,SystemResetWarning,0821.4,5.00,000.00,023.2,022.3,000.0,031.7,025.0,09.1,0000.0,0002.19,0007.72,0001.15
2024-03-02 06:16:00,SystemResetWarning,0821.1,5.00,000.00,023.2,022.3,000.0,031.7,025.0,09.1,0000.0,0002.16,0007.94,0001.16
2024-03-02 06:17:00,SystemResetWarning,0821.2,5.00,000.00,023.2,022.3,000.0,031.7,025.0,09.2,0000.0,0002.16,0008.08,0001.18
2024-03-02 06:18:00,SystemResetWarning,0821.2,4.99,000.00,023.2,022.3,000.0,031.7,025.0,09.5,0000.0,0002.17,0008.51,0001.19
2024-03-02 06:19:00,SystemResetWarning,0821.0,4.99,000.00,023.2,022.3,000.0,031.7,025.0,09.3,0000.0,0002.19,0008.32,0001.19
2024-03-02 06:20:00,SystemResetWarning,0820.9,5.01,000.00,023.2,022.3,000.0,031.7,025.0,08.8,0000.0,0002.25,0008.59,0001.19
2024-03-02 06:21:00,SystemResetWarning,0821.1,5.00,000.00,023.2,022.3,000.0,031.7,025.0,08.5,0000.0,0002.27,0008.54,0001.20
2024-03-02 06:22:00,SystemResetWarning,0821.1,5.00,000.00,023.2,022.3,000.0,031.7,025.0,08.7,0000.0,0002.29,0008.54,0001.21
2024-03-02 06:23:00,SystemResetWarning,0821.1,5.00,000.00,023.2,022.3,000.0,031.7,025.0,09.1,0000.0,0002.30,0008.58,0001.23
2024-03-02 06:24:00,SystemResetWarning,0821.1,5.00,000.00,023.2,022.3,000.0,031.7,025.0,09.6,0000.0,0002.31,0008.48,0001.23
2024-03-02 06:25:00,SystemResetWarning,0821.1,5.00,000.00,023.2,022.3,000.0,031.7,025.0,09.4,0000.0,0002.23,0008.33,0001.23
2024-03-02 06:26:00,SystemResetWarning,0821.1,5.00,000.00,023.2,022.3,000.0,031.7,025.0,09.2,0000.0,0002.19,0007.52,0001.23
2024-03-02 06:27:00,SystemResetWarning,0821.5,5.00,000.00,023.2,022.3,000.0,031.7,025.0,09.1,0000.0,0002.22,0007.10,0001.22
2024-03-02 06:28:00,SystemResetWarning,0821.3,5.00,000.00,023.2,022.3,000.0,031.7,025.0,09.1,0000.0,0002.19,0007.06,0001.21
2024-03-02 06:29:00,SystemResetWarning,0821.1,5.00,000.00,023.1,022.2,000.0,031.7,024.9,09.1,0000.0,0002.18,0005.69,0001.20
2024-03-02 06:30:00,SystemResetWarning,0821.1,5.00,000.00,023.1,022.2,000.0,031.7,025.0,09.0,0000.0,0002.10,0005.46,0001.20
2024-03-02 06:31:00,SystemResetWarning,0821.0,5.00,000.00,023.1,022.2,000.0,031.7,025.0,09.0,0000.0,0002.02,0004.71,0001.19
2024-03-02 06:32:00,SystemResetWarning,0821.0,5.00,000.00,023.1,022.2,000.0,031.7,025.0,08.8,0000.0,0001.96,0005.66,0001.19
2024-03-02 06:33:00,SystemResetWarning,0821.1,5.00,000.00,023.1,022.2,000.0,031.7,025.0,08.6,0000.0,0001.90,0006.11,0001.17
2024-03-02 06:34:00,SystemResetWarning,0821.1,4.99,000.00,023.1,022.3,000.0,031.7,025.0,08.8,0000.0,0001.86,0007.17,0001.16
2024-03-02 06:35:00,SystemResetWarning,0821.1,4.99,000.00,023.1,022.2,000.0,031.7,024.9,08.6,0000.0,0001.82,0007.18,0001.14
2024-03-02 06:36:00,SystemResetWarning,0821.0,5.00,000.00,023.1,022.2,000.0,031.6,024.9,08.4,0000.0,0001.78,0006.38,0001.13
2024-03-02 06:37:00,SystemResetWarning,0821.1,5.01,000.00,023.1,022.2,000.0,031.6,024.9,08.3,0000.0,0001.75,0006.20,0001.11
2024-03-02 06:38:00,SystemResetWarning,0821.1,5.00,000.00,023.1,022.2,000.0,031.6,024.9,08.3,0000.0,0001.75,0006.23,0001.11
2024-03-02 06:39:00,SystemResetWarning,0821.0,5.01,000.00,023.1,022.2,000.0,031.6,024.9,08.2,0000.0,0001.77,0006.19,0001.12
2024-03-02 06:40:00,SystemResetWarning,0821.0,5.00,000.00,023.1,022.2,000.0,031.6,024.9,08.0,0000.0,0001.77,0006.56,0001.12
2024-03-02 06:41:00,SystemResetWarning,0821.1,5.01,000.00,023.1,022.1,000.0,031.6,024.9,08.0,0000.0,0001.81,0006.63,0001.12
2024-03-02 06:42:00,SystemResetWarning,0821.1,5.00,000.00,023.1,022.1,000.0,031.6,024.9,08.6,0000.0,0001.86,0007.47,0001.12
2024-03-02 06:43:00,SystemResetWarning,0821.1,5.00,000.00,023.0,022.1,000.0,031.6,024.9,08.6,0000.0,0001.88,0007.24,0001.12
2024-03-02 06:44:00,SystemResetWarning,0821.2,4.99,000.00,023.1,022.1,000.0,031.6,024.9,08.5,0000.0,0001.88,0006.88,0001.12
2024-03-02 06:45:00,SystemResetWarning,0821.1,5.00,000.00,023.1,022.1,000.0,031.6,024.9,08.8,0000.0,0001.87,0005.54,0001.13
2024-03-02 06:46:00,SystemResetWarning,0821.0,4.99,000.00,023.1,022.1,000.0,031.6,024.9,09.3,0000.0,0001.87,0005.67,0001.13
2024-03-02 06:47:00,SystemResetWarning,0821.0,5.00,000.00,023.1,022.1,000.0,031.6,024.9,09.3,0000.0,0001.86,0005.63,0001.12
2024-03-02 06:48:00,SystemResetWarning,0821.0,5.00,000.00,023.0,022.1,000.0,031.6,024.9,09.1,0000.0,0001.90,0005.71,0001.12
2024-03-02 06:49:00,SystemResetWarning,0820.9,5.00,000.00,023.0,022.1,000.0,031.6,024.9,08.7,0000.0,0001.88,0005.73,0001.11
2024-03-02 06:50:00,SystemResetWarning,0820.9,5.00,000.00,023.0,022.1,000.0,031.6,024.9,08.7,0000.0,0001.85,0005.67,0001.10
2024-03-02 06:51:00,SystemResetWarning,0820.8,5.01,000.00,023.1,022.2,000.0,031.6,024.9,08.6,0000.0,0001.85,0005.42,0001.08
2024-03-02 06:52:00,SystemResetWarning,0820.8,4.99,000.00,023.1,022.2,000.0,031.5,024.9,08.5,0000.0,0001.78,0005.19,0001.05
2024-03-02 06:53:00,SystemResetWarning,0821.2,5.00,000.00,023.1,022.2,000.0,031.5,024.8,08.4,0000.0,0001.77,0004.51,0001.02
2024-03-02 06:54:00,SystemResetWarning,0820.9,5.00,000.00,023.1,022.2,000.0,031.5,024.8,08.5,0000.0,0001.74,0003.52,0001.00
2024-03-02 06:55:00,SystemResetWarning,0820.9,4.99,000.00,023.1,022.1,000.0,031.5,024.8,08.5,0000.0,0001.72,0004.73,0000.98
2024-03-02 06:56:00,SystemResetWarning,0820.8,5.00,000.00,023.1,022.1,000.0,031.5,024.9,08.4,0000.0,0001.67,0004.73,0000.95
2024-03-02 06:57:00,SystemResetWarning,0820.8,5.01,000.00,023.0,022.1,000.0,031.5,024.9,08.2,0000.0,0001.65,0004.69,0000.94
2024-03-02 06:58:00,SystemResetWarning,0820.8,5.00,000.00,023.0,022.1,000.0,031.5,024.8,08.3,0000.0,0001.68,0005.52,0000.95
2024-03-02 06:59:00,SystemResetWarning,0820.8,5.00,000.00,023.0,022.1,000.0,031.5,024.8,08.4,0000.0,0001.66,0005.52,0000.95
